User: anonymous   Login
Location: Unspecified
(0.0000°N, 0.0000°E)
Time: 19:59:08
(UTC+00:00)
Language:

ADEOS - Orbit

View from above orbital plane
View from above orbital plane
View from above satellite
View from above satellite

Ground track
Ground track

The orbit data is extracted from the following two-line orbital elements,

1 24277U 96046A   17144.91581395 -.00000007 +00000-0 +14784-4 0  9991
2 24277 098.7200 094.8214 0002122 060.5867 299.5526 14.29382312082673
Epoch (UTC): 24 May 2017 21:58:46
Eccentricity: 0.0002122
inclination: 98.7200°
perigee height: 792 km
apogee height: 795 km
right ascension of ascending node: 94.8214°
argument of perigee: 60.5867°
revolutions per day: 14.29382312
mean anomaly at epoch: 299.5526°
orbit number at epoch: 8267

The dashed part of the orbit path shows where the satellite is in the earth's shadow,  

DLR